CALSPHERE 1 1 00900U 64063C 26120.55440601 .00000703 00000+0 70599-3 0 9996 2 00900 90.2221 70.6485 0028495 76.2457 336.7930 13.76566675 64874 CALSPHERE 2 1 00902U 64063E 26120.64625331 .00000049 00000+0 60823-4 0 9996 2 00902 90.2351 74.6526 0019007 11.7456 161.9449 13.52896647849831 LCS 1 1 01361U 65034C 26120.61117176 .00000010 00000+0 17932-3 0 9995 2 01361 32.1435 289.9924 0013146 312.5031 47.4355 9.89310230205172 TEMPSAT 1 1 01512U 65065E 26120.48332691 .00000031 00000+0 44288-4 0 9991 2 01512 90.0009 212.5842 0070250 24.2352 348.1408 13.33591775953699 CALSPHERE 4A 1 01520U 65065H 26120.47462788 .00000109 00000+0 19210-3 0 9992 2 01520 89.8962 122.9632 0067921 237.3328 293.5502 13.36269147956334 OPS 5712 (P/L 160) 1 02826U 67053A 26120.58609090 .00006226 00000+0 89104-3 0 9997 2 02826 69.9155 154.9039 0002014 246.1384 113.9552 14.77053362 59201 OPS 5712 (P/L 153) 1 02874U 67053H 26120.57466442 .00000014 00000+0 48325-4 0 9991 2 02874 69.9744 217.3576 0010064 260.6314 99.3654 13.96821236 148 RIGIDSPHERE 2 (LCS 4) 1 05398U 71067E 26120.59014406 .00000686 00000+0 21693-3 0 9999 2 05398 87.6246 352.0299 0061301 32.6437 327.8527 14.37815140867049 COSMOS 2493 (SKRL-756 1) 1 39490U 13078A 26120.58626382 .00003359 00000+0 25458-3 0 9991 2 39490 82.4100 307.7543 0014163 49.4651 310.7804 15.01900061670813 COSMOS 2494 (SKRL-756 2) 1 39491U 13078B 26120.60263031 .00002950 00000+0 20787-3 0 9999 2 39491 82.4090 297.3233 0016264 12.2805 347.8814 15.04570022671653